This is the latest recevied weather packets stored in our database for station/object LX1CU-13. If no packets are shown the sender has not sent any weather packets the latest 10 day(s).
| Time | Temp. | Humidity | Pressure | Rain* | Wind** | Luminosity | Snow |
|---|---|---|---|---|---|---|---|
| 1777618124 | 9.44° C | 51% | 1021.1 hPa | 0 mm | - | - | - |
| 1777617825 | 8.89° C | 52% | 1021.1 hPa | 0 mm | - | - | - |
| 1777617525 | 8.89° C | 53% | 1021 hPa | 0 mm | - | - | - |
| 1777617224 | 8.33° C | 54% | 1021.2 hPa | 0 mm | - | - | - |
| 1777616925 | 7.78° C | 56% | 1021.3 hPa | 0 mm | - | - | - |
| 1777616625 | 7.78° C | 57% | 1021.3 hPa | 0 mm | - | - | - |
| 1777616325 | 7.22° C | 58% | 1021.3 hPa | 0 mm | - | - | - |
| 1777616025 | 6.67° C | 59% | 1021.3 hPa | 0 mm | - | - | - |
| 1777615725 | 6.67° C | 60% | 1021.2 hPa | 0 mm | - | - | - |
| 1777615425 | 6.11° C | 60% | 1021.2 hPa | 0 mm | - | - | - |
| 1777615125 | 5.56° C | 62% | 1021.2 hPa | 0 mm | - | - | - |
| 1777614825 | 5° C | 64% | 1021.1 hPa | 0 mm | - | - | - |
| 1777614525 | 4.44° C | 65% | 1021.1 hPa | 0 mm | - | - | - |
| 1777614225 | 3.89° C | 65% | 1021.1 hPa | 0 mm | - | - | - |
| 1777613925 | 3.89° C | 66% | 1021.1 hPa | 0 mm | - | - | - |
| 1777613625 | 3.33° C | 66% | 1021.1 hPa | 0 mm | - | - | - |
| 1777613325 | 2.78° C | 68% | 1021.2 hPa | 0 mm | - | - | - |
| 1777613025 | 2.78° C | 68% | 1021.2 hPa | 0 mm | - | - | - |
| 1777612725 | 1.67° C | 68% | 1021.2 hPa | 0 mm | - | - | - |
| 1777612425 | 1.67° C | 68% | 1021.3 hPa | 0 mm | - | - | - |
| 1777612125 | 1.67° C | 67% | 1021.2 hPa | 0 mm | - | - | - |
| 1777611825 | 1.67° C | 66% | 1021.1 hPa | 0 mm | - | - | - |
| 1777611525 | 1.67° C | 66% | 1021.2 hPa | 0 mm | - | - | - |
| 1777611225 | 1.67° C | 65% | 1021.1 hPa | 0 mm | - | - | - |
| 1777610925 | 1.67° C | 64% | 1021.2 hPa | 0 mm | - | - | - |
* Rain latest hour (hover to see other rain measurements)
** Current wind speed in m/s (hover to see current wind gust speed)